This is the latest recevied weather packets stored in our database for station/object AB4KN. If no packets are shown the sender has not sent any weather packets the latest 10 day(s).
| Time | Temp. | Humidity | Pressure | Rain* | Wind** | Luminosity | Snow |
|---|---|---|---|---|---|---|---|
| 1777466115 | 17.22° C | 89% | 1020.3 hPa | 0 mm | - | 31 W/m² | - |
| 1777465813 | 17.22° C | 89% | 1020.3 hPa | 0 mm | - | 27 W/m² | - |
| 1777465508 | 17.22° C | 89% | 1020.2 hPa | 0 mm | - | 22 W/m² | - |
| 1777465203 | 17.22° C | 89% | 1020.1 hPa | 0 mm | - | 16 W/m² | - |
| 1777464897 | 17.22° C | 89% | 1020.5 hPa | 0 mm | - | 14 W/m² | - |
| 1777464593 | 17.22° C | 89% | 1020.5 hPa | 0 mm | - | 15 W/m² | - |
| 1777464289 | 17.22° C | 89% | 1020.5 hPa | 0 mm | - | 16 W/m² | - |
| 1777463985 | 17.22° C | 89% | 1020.6 hPa | 0 mm | - | 20 W/m² | - |
| 1777463680 | 17.22° C | 89% | 1021 hPa | 0 mm | - | 16 W/m² | - |
| 1777463375 | 17.22° C | 89% | 1020.8 hPa | 0 mm | - | 10 W/m² | - |
| 1777463072 | 17.22° C | 89% | 1021.1 hPa | 0 mm | - | 5 W/m² | - |
| 1777462767 | 17.22° C | 89% | 1021.2 hPa | 0 mm | - | 4 W/m² | - |
| 1777462462 | 17.22° C | 89% | 1021.4 hPa | 0 mm | - | 3 W/m² | - |
| 1777462159 | 17.22° C | 89% | 1021.5 hPa | 0 mm | - | 2 W/m² | - |
| 1777461856 | 17.22° C | 89% | 1021.6 hPa | 0 mm | - | 2 W/m² | - |
| 1777461552 | 17.22° C | 89% | 1021.6 hPa | 0 mm | - | 0 W/m² | - |
| 1777461248 | 17.22° C | 89% | 1021.8 hPa | 0 mm | - | 0 W/m² | - |
| 1777460943 | 17.22° C | 89% | 1021.5 hPa | 0 mm | - | 0 W/m² | - |
| 1777460639 | 17.22° C | 89% | 1021.7 hPa | 0 mm | - | 0 W/m² | - |
| 1777460335 | 17.22° C | 89% | 1021.7 hPa | 0 mm | - | 0 W/m² | - |
| 1777460032 | 17.22° C | 89% | 1021.7 hPa | 0 mm | - | 0 W/m² | - |
| 1777459729 | 17.22° C | 89% | 1021.7 hPa | 0 mm | - | 0 W/m² | - |
| 1777459425 | 17.22° C | 89% | 1021.7 hPa | 0 mm | - | 0 W/m² | - |
| 1777459122 | 17.22° C | 89% | 1021.7 hPa | 1.78 mm | - | 0 W/m² | - |
| 1777458814 | 17.22° C | 89% | 1021.5 hPa | 1.78 mm | - | 0 W/m² | - |
* Rain latest hour (hover to see other rain measurements)
** Current wind speed in m/s (hover to see current wind gust speed)